Weather History for Morrisville, VT

Change the Weather History Date:

Tuesday, April 8, 2014

  Actual Average Record
Temperature  
Mean Temperature 45 °F 38 °F  
Max Temperature 54 °F 50 °F 60 °F (1998)
Min Temperature 36 °F 27 °F 17 °F (2007)
Degree Days  
Heating Degree Days 20 27  
Month to date heating degree days 222 226  
Since 1 July heating degree days 7728 7313  
Cooling Degree Days 0 0  
Month to date cooling degree days 0 0  
Year to date cooling degree days 0 0  
Moisture  
Dew Point 39 °F    
Average Humidity 77    
Maximum Humidity 92    
Minimum Humidity 62    
Precipitation  
Precipitation 0.25 in 0.08 in 0.25 in (2014)
Month to date precipitation 0.64 0.67  
Year to date precipitation 7.91 6.62  
Sea Level Pressure  
Sea Level Pressure 29.46 in    
Wind  
Wind Speed 6 mph (SSW)    
Max Wind Speed 15 mph    
Max Gust Speed 23 mph    
Visibility 9 miles    
Events Rain , Thunderstorm    
T = Trace of Precipitation, MM = Missing Value Source: NWS Daily Summary

Daily Weather History Graph

Daily Weather History Graph

Search for Another Location

Airport:

Trip Planner

Search our weather history database for the weather conditions in past years. The results will help you decide how hot, cold, wet, or windy it might be!

Date:

Astronomy

Apr. 08, 2014 Rise Set
Actual Time 6:18 AM EDT 7:26 PM EDT
Civil Twilight 5:48 AM EDT 7:56 PM EDT
Nautical Twilight 5:13 AM EDT 8:32 PM EDT
Astronomical Twilight 4:35 AM EDT 9:10 PM EDT
Moon 1:04 PM EDT (4/8) 2:43 AM EDT (4/8)
Length of Visible Light 14h 07m
Length of Day
13h 07m
Waxing Gibbous, 62% of the Moon is Illuminated
Apr 8
Waxing Gibbous
Apr 15
Full
Apr 22
Last Quarter
Apr 29
New
May 6
First Quarter

Hourly Weather History & Observations

Time (EDT) Temp. Windchill Dew Point Humidity Pressure Visibility Wind Dir Wind Speed Gust Speed Precip Events Conditions
12:54 AM 37.0 °F - 33.1 °F 86% 29.83 in 10.0 mi Calm Calm - 0.03 in   Overcast
1:54 AM 37.9 °F 35.5 °F 34.0 °F 86% 29.75 in 10.0 mi NNE 3.5 mph - N/A   Overcast
2:54 AM 37.0 °F 31.6 °F 35.1 °F 93% 29.67 in 10.0 mi North 6.9 mph - N/A   Overcast
3:54 AM 39.0 °F 36.8 °F 36.0 °F 89% 29.57 in 9.0 mi North 3.5 mph - 0.01 in Rain Light Rain
4:18 AM 43.0 °F 37.2 °F 39.0 °F 86% 29.60 in 4.0 mi SSW 10.4 mph - 0.04 in Rain , Thunderstorm Heavy Thunderstorms and Rain
4:27 AM 42.1 °F 38.4 °F 39.0 °F 89% 29.58 in 2.5 mi Variable 5.8 mph - 0.10 in Rain , Thunderstorm Heavy Rain
4:30 AM 42.1 °F 39.2 °F 39.0 °F 89% 29.57 in 2.5 mi SSW 4.6 mph - 0.13 in Rain Heavy Rain
4:44 AM 41.0 °F 38.0 °F 39.0 °F 93% 29.54 in 8.0 mi Variable 4.6 mph - 0.16 in Rain Light Rain
4:54 AM 43.0 °F 38.8 °F 39.0 °F 86% 29.55 in 10.0 mi Variable 6.9 mph - 0.16 in Rain Light Rain
5:54 AM 43.0 °F 39.5 °F 39.9 °F 89% 29.52 in 6.0 mi Variable 5.8 mph - 0.03 in Rain Light Rain
6:54 AM 44.1 °F 39.0 °F 39.9 °F 85% 29.48 in 10.0 mi SSW 9.2 mph 18.4 mph 0.01 in   Overcast
7:54 AM 44.1 °F 40.8 °F 39.9 °F 85% 29.44 in 10.0 mi SW 5.8 mph - N/A   Overcast
8:54 AM 44.1 °F 38.6 °F 39.9 °F 85% 29.41 in 10.0 mi South 10.4 mph - N/A   Overcast
9:54 AM 44.1 °F 40.8 °F 41.0 °F 89% 29.39 in 7.0 mi SSW 5.8 mph - 0.01 in Rain Light Rain
10:06 AM 45.0 °F 41.2 °F 42.1 °F 90% 29.36 in 10.0 mi Variable 6.9 mph - 0.00 in   Mostly Cloudy
10:28 AM 45.0 °F 42.6 °F 42.1 °F 90% 29.35 in 10.0 mi Variable 4.6 mph - 0.00 in   Mostly Cloudy
10:54 AM 46.0 °F 42.5 °F 42.1 °F 86% 29.36 in 10.0 mi Variable 6.9 mph - 0.00 in   Overcast
11:50 AM 50.0 °F - 44.6 °F 82% 29.30 in 10.0 mi Variable 6.9 mph - N/A   Partly Cloudy
11:54 AM 50.0 °F - 44.1 °F 80% 29.31 in 10.0 mi South 6.9 mph - N/A   Scattered Clouds
12:54 PM 48.9 °F - 43.0 °F 80% 29.30 in 10.0 mi Variable 4.6 mph - N/A   Overcast
1:54 PM 48.9 °F - 43.0 °F 80% 29.28 in 10.0 mi SSE 3.5 mph - N/A   Overcast
2:54 PM 50.0 °F - 44.1 °F 80% 29.26 in 10.0 mi South 3.5 mph - N/A   Overcast
3:54 PM 53.1 °F - 43.0 °F 69% 29.25 in 10.0 mi Calm Calm - N/A   Overcast
4:54 PM 50.0 °F - 43.0 °F 77% 29.28 in 10.0 mi Variable 5.8 mph - 0.02 in Rain Light Rain
5:54 PM 46.9 °F - 39.0 °F 74% 29.35 in 10.0 mi Variable 3.5 mph - 0.00 in Rain Light Rain
6:54 PM 44.1 °F 41.5 °F 33.1 °F 65% 29.41 in 7.0 mi NW 4.6 mph - 0.00 in   Overcast
7:54 PM 42.1 °F - 30.9 °F 65% 29.44 in 9.0 mi Calm Calm - N/A   Overcast
8:54 PM 39.0 °F 33.4 °F 32.0 °F 76% 29.49 in 10.0 mi SSW 8.1 mph - N/A   Overcast
9:54 PM 37.0 °F 33.3 °F 33.1 °F 86% 29.50 in 10.0 mi South 4.6 mph - 0.00 in Rain Light Rain
10:02 PM 37.0 °F 34.5 °F 33.1 °F 86% 29.49 in 10.0 mi Variable 3.5 mph - 0.00 in Rain Light Rain
10:54 PM 39.9 °F 35.8 °F 33.1 °F 77% 29.52 in 10.0 mi Variable 5.8 mph 20.7 mph 0.01 in Rain Light Rain
11:28 PM 39.9 °F 32.5 °F 34.0 °F 79% 29.52 in 9.0 mi WNW 12.7 mph 23.0 mph 0.00 in   Overcast